Total_Precipitation_Accumulation
0.10 0.17 0.48 0.58 0.54 0.50 0.54 0.57 0.57 0.49 0.48 0.52 0.55 0.57 0.58 0.56 0.56 0.54 0.50 0.53 0.57 0.58 0.62 0.69 0.71 0.70 0.62 0.52 0.45 0.40 0.36 0.35 0.36 0.39 0.42 0.46 0.47 0.46 0.43 0.39 0.35 0.41 0.55
0.11 0.17 0.39 0.48 0.51 0.52 0.58 0.58 0.58 0.47 0.44 0.48 0.53 0.57 0.56 0.55 0.56 0.56 0.56 0.59 0.62 0.64 0.66 0.66 0.62 0.60 0.58 0.49 0.43 0.38 0.35 0.32 0.27 0.25 0.26 0.30 0.41 0.51 0.48 0.44 0.43 0.53 0.55
0.09 0.15 0.30 0.43 0.48 0.51 0.56 0.56 0.56 0.46 0.41 0.43 0.51 0.59 0.58 0.56 0.54 0.57 0.59 0.62 0.66 0.69 0.68 0.63 0.60 0.58 0.50 0.45 0.43 0.38 0.36 0.30 0.22 0.17 0.16 0.22 0.39 0.55 0.51 0.50 0.50 0.55 0.57
0.06 0.12 0.21 0.36 0.47 0.53 0.55 0.56 0.52 0.47 0.45 0.45 0.51 0.59 0.62 0.58 0.54 0.56 0.59 0.61 0.66 0.66 0.68 0.64 0.60 0.60 0.51 0.44 0.41 0.38 0.38 0.32 0.21 0.14 0.09 0.18 0.41 0.67 0.67 0.63 0.59 0.59 0.59
0.08 0.12 0.21 0.37 0.48 0.57 0.60 0.60 0.57 0.54 0.53 0.54 0.55 0.60 0.63 0.65 0.61 0.57 0.53 0.55 0.63 0.63 0.64 0.65 0.62 0.61 0.54 0.47 0.42 0.42 0.43 0.38 0.23 0.12 0.08 0.14 0.38 0.75 0.78 0.70 0.64 0.60 0.57
0.09 0.13 0.23 0.39 0.53 0.58 0.61 0.64 0.59 0.59 0.60 0.60 0.60 0.64 0.68 0.68 0.66 0.61 0.56 0.52 0.51 0.54 0.60 0.63 0.64 0.65 0.60 0.51 0.48 0.51 0.53 0.46 0.23 0.09 0.09 0.14 0.37 0.75 0.81 0.71 0.64 0.60 0.58
0.10 0.14 0.24 0.42 0.56 0.62 0.65 0.69 0.67 0.67 0.68 0.67 0.67 0.69 0.70 0.71 0.71 0.66 0.60 0.53 0.46 0.45 0.49 0.56 0.58 0.59 0.60 0.54 0.54 0.57 0.62 0.47 0.21 0.15 0.14 0.16 0.37 0.83 1.00 0.85 0.71 0.63 0.63
0.11 0.17 0.28 0.47 0.60 0.69 0.74 0.78 0.75 0.77 0.81 0.80 0.80 0.79 0.76 0.73 0.70 0.66 0.61 0.56 0.50 0.48 0.49 0.52 0.54 0.57 0.60 0.58 0.57 0.60 0.61 0.40 0.19 0.18 0.19 0.22 0.46 0.95 1.14 1.10 0.90 0.70 0.64
0.15 0.19 0.30 0.44 0.59 0.75 0.84 0.85 0.83 0.83 0.87 0.86 0.86 0.85 0.83 0.80 0.78 0.78 0.71 0.62 0.58 0.56 0.55 0.51 0.49 0.48 0.50 0.55 0.56 0.53 0.47 0.35 0.20 0.24 0.24 0.33 0.46 0.94 1.13 1.19 1.07 0.86 0.72
0.23 0.26 0.35 0.48 0.57 0.67 0.77 0.86 0.84 0.82 0.87 0.91 0.92 0.90 0.91 0.87 0.86 0.87 0.78 0.67 0.62 0.60 0.55 0.50 0.48 0.43 0.40 0.40 0.40 0.39 0.31 0.27 0.19 0.26 0.39 0.39 0.47 0.96 1.17 1.21 1.11 1.01 0.89
0.34 0.35 0.41 0.56 0.64 0.69 0.73 0.74 0.85 0.90 0.94 0.95 0.94 0.90 0.90 0.87 0.80 0.75 0.71 0.69 0.69 0.67 0.59 0.54 0.52 0.46 0.39 0.33 0.29 0.27 0.23 0.17 0.19 0.31 0.36 0.39 0.59 1.04 1.21 1.20 1.14 1.06 1.02
0.33 0.38 0.45 0.59 0.65 0.72 0.73 0.81 0.93 0.93 0.94 0.93 0.87 0.88 0.85 0.80 0.76 0.71 0.73 0.75 0.73 0.73 0.71 0.66 0.60 0.51 0.40 0.30 0.31 0.32 0.20 0.14 0.16 0.17 0.20 0.28 0.61 1.07 1.24 1.19 1.19 1.17 1.16
0.35 0.42 0.49 0.60 0.70 0.76 0.78 0.82 0.90 0.90 0.93 0.94 0.93 0.92 0.92 0.90 0.88 0.85 0.82 0.84 0.80 0.74 0.74 0.73 0.69 0.54 0.45 0.38 0.38 0.34 0.24 0.20 0.17 0.13 0.13 0.20 0.39 0.69 1.01 1.16 1.22 1.26 1.29
0.44 0.49 0.55 0.67 0.77 0.80 0.84 0.86 0.85 0.86 0.88 0.87 0.91 0.93 0.94 0.93 0.88 0.87 0.84 0.79 0.78 0.78 0.76 0.73 0.69 0.58 0.47 0.39 0.36 0.31 0.27 0.25 0.20 0.18 0.14 0.17 0.25 0.37 0.62 0.88 1.06 1.21 1.33
0.49 0.55 0.62 0.75 0.82 0.84 0.89 0.92 0.92 0.88 0.84 0.81 0.82 0.87 0.89 0.89 0.84 0.79 0.76 0.74 0.72 0.73 0.72 0.67 0.61 0.54 0.45 0.40 0.35 0.30 0.29 0.28 0.27 0.24 0.20 0.20 0.20 0.25 0.39 0.61 0.87 1.10 1.30
0.50 0.57 0.69 0.80 0.89 0.94 0.95 0.91 0.90 0.92 0.89 0.85 0.81 0.78 0.80 0.83 0.84 0.81 0.77 0.75 0.71 0.69 0.70 0.69 0.65 0.58 0.49 0.42 0.35 0.31 0.29 0.27 0.27 0.28 0.26 0.26 0.25 0.25 0.33 0.46 0.66 0.97 1.24
0.55 0.66 0.81 0.90 0.99 1.06 1.07 1.02 0.98 0.96 0.97 0.90 0.85 0.83 0.79 0.77 0.78 0.83 0.83 0.78 0.71 0.66 0.66 0.68 0.71 0.72 0.64 0.53 0.45 0.37 0.32 0.28 0.25 0.25 0.26 0.29 0.30 0.30 0.31 0.40 0.49 0.72 1.05
0.71 0.78 0.89 1.00 1.05 1.09 1.15 1.16 1.12 1.04 0.97 0.94 0.89 0.89 0.86 0.81 0.81 0.84 0.87 0.83 0.77 0.72 0.68 0.65 0.65 0.68 0.67 0.63 0.58 0.53 0.46 0.39 0.30 0.25 0.24 0.26 0.32 0.34 0.34 0.36 0.43 0.55 0.84
0.72 0.78 0.91 1.04 1.07 1.06 1.18 1.25 1.26 1.17 1.05 0.98 0.95 0.91 0.88 0.84 0.81 0.84 0.88 0.87 0.84 0.82 0.78 0.73 0.68 0.62 0.60 0.59 0.56 0.53 0.48 0.46 0.44 0.40 0.32 0.27 0.27 0.32 0.37 0.38 0.41 0.45 0.61
0.78 0.85 0.93 1.09 1.11 1.14 1.23 1.34 1.32 1.26 1.15 1.05 0.97 0.88 0.87 0.86 0.83 0.82 0.84 0.86 0.88 0.86 0.82 0.77 0.73 0.65 0.58 0.56 0.57 0.56 0.49 0.44 0.41 0.39 0.37 0.34 0.29 0.28 0.37 0.43 0.44 0.41 0.44
0.75 0.84 0.89 1.07 1.11 1.19 1.26 1.27 1.25 1.15 1.09 1.04 0.96 0.90 0.85 0.88 0.90 0.87 0.85 0.85 0.85 0.84 0.77 0.72 0.71 0.72 0.69 0.66 0.69 0.66 0.58 0.49 0.45 0.42 0.40 0.38 0.33 0.30 0.32 0.42 0.49 0.45 0.39
0.62 0.70 0.77 0.97 1.14 1.20 1.21 1.15 1.13 1.12 1.06 1.05 0.98 0.96 0.94 0.90 0.93 0.92 0.86 0.87 0.87 0.83 0.77 0.70 0.68 0.69 0.69 0.70 0.73 0.78 0.70 0.62 0.52 0.41 0.39 0.37 0.33 0.32 0.35 0.36 0.45 0.50 0.47
0.57 0.60 0.69 0.88 1.06 1.20 1.26 1.31 1.30 1.32 1.31 1.24 1.13 1.02 0.96 0.95 0.94 0.96 0.91 0.86 0.88 0.89 0.83 0.73 0.67 0.66 0.66 0.61 0.61 0.81 0.85 0.65 0.46 0.38 0.36 0.36 0.34 0.33 0.33 0.35 0.39 0.45 0.50
0.52 0.57 0.68 0.87 1.03 1.12 1.19 1.27 1.30 1.28 1.28 1.22 1.11 1.02 0.94 0.92 0.93 0.91 0.93 0.91 0.87 0.86 0.82 0.77 0.69 0.65 0.67 0.67 0.62 0.61 0.66 0.65 0.65 0.48 0.34 0.33 0.35 0.36 0.35 0.35 0.37 0.43 0.48
0.55 0.58 0.67 0.83 0.99 1.12 1.18 1.18 1.22 1.21 1.17 1.20 1.24 1.17 1.07 1.00 0.96 0.93 0.90 0.93 0.91 0.85 0.80 0.79 0.79 0.75 0.73 0.71 0.66 0.60 0.56 0.52 0.53 0.64 0.46 0.33 0.35 0.35 0.36 0.39 0.40 0.44 0.48
0.62 0.65 0.69 0.78 0.92 1.11 1.23 1.21 1.16 1.16 1.17 1.18 1.21 1.22 1.19 1.11 1.02 0.93 0.89 0.87 0.87 0.84 0.77 0.74 0.77 0.80 0.80 0.75 0.69 0.63 0.65 0.64 0.55 0.60 0.56 0.40 0.38 0.36 0.37 0.42 0.46 0.49 0.51